• In Uzbekistan
  • List of Countries
  • For 7 days
  • Water Temperature
  • Weather Map
  • Weather Widgets
  • user-avatar
    Login

    Hourly Weather Maracay

    Today, 19 January, Sunday

    Time Temperature Precipitation Wind Pressure Humidity
    00:00 +23°C° 0 mm 1 mps 712 mmHg 90%
    01:00 +22°C° 0 mm 1 mps 712 mmHg 89%
    02:00 +22°C° 0 mm 1 mps 712 mmHg 89%
    03:00 +22°C° 0 mm 1 mps 711 mmHg 89%
    04:00 +22°C° 0 mm 1 mps 711 mmHg 89%
    05:00 +22°C° 0 mm 1 mps 712 mmHg 87%
    06:00 +23°C° 0 mm 1 mps 712 mmHg 85%
    07:00 +23°C° 0 mm 1 mps 712 mmHg 84%
    08:00 +25°C° 0 mm 1 mps 713 mmHg 76%
    09:00 +27°C° 0 mm 1 mps 713 mmHg 69%
    10:00 +29°C° 0 mm 2 mps 714 mmHg 61%
    11:00 +29°C° 0.1 mm 2 mps 713 mmHg 60%
    12:00 +30°C° 0.1 mm 3 mps 713 mmHg 58%
    13:00 +30°C° 0.1 mm 3 mps 712 mmHg 57%
    14:00 +30°C° 0.1 mm 2 mps 711 mmHg 59%
    15:00 +29°C° 0.1 mm 2 mps 711 mmHg 61%
    16:00 +29°C° 0.1 mm 2 mps 711 mmHg 63%
    17:00 +27°C° 0 mm 2 mps 711 mmHg 71%
    18:00 +26°C° 0 mm 2 mps 711 mmHg 78%
    19:00 +24°C° 0 mm 2 mps 711 mmHg 85%
    20:00 +24°C° 0 mm 2 mps 711 mmHg 86%
    21:00 +23°C° 0 mm 1 mps 711 mmHg 87%
    22:00 +23°C° 0 mm 1 mps 712 mmHg 89%
    23:00 +23°C° 0 mm 1 mps 712 mmHg 88%

    Tomorrow, 20 January, Monday

    Time Temperature Precipitation Wind Pressure Humidity
    00:00 +23°C° 0 mm 1 mps 711 mmHg 88%
    01:00 +23°C° 0 mm 1 mps 711 mmHg 88%
    02:00 +22°C° 0 mm 1 mps 711 mmHg 88%
    03:00 +22°C° 0 mm 1 mps 711 mmHg 88%
    04:00 +22°C° 0 mm 1 mps 711 mmHg 88%
    05:00 +23°C° 0 mm 1 mps 711 mmHg 85%
    06:00 +23°C° 0 mm 1 mps 711 mmHg 83%
    07:00 +22°C° 0 mm 0 mps 712 mmHg 81%
    08:00 +25°C° 0 mm 1 mps 712 mmHg 73%
    09:00 +27°C° 0 mm 1 mps 713 mmHg 66%
    10:00 +29°C° 0 mm 2 mps 713 mmHg 59%
    11:00 +30°C° 0 mm 2 mps 713 mmHg 58%
    12:00 +30°C° 0 mm 3 mps 712 mmHg 57%
    13:00 +31°C° 0 mm 3 mps 711 mmHg 56%
    14:00 +30°C° 0.1 mm 3 mps 711 mmHg 58%
    15:00 +30°C° 0.1 mm 3 mps 710 mmHg 60%
    16:00 +29°C° 0.1 mm 2 mps 710 mmHg 62%
    17:00 +28°C° 0.1 mm 2 mps 710 mmHg 68%
    18:00 +27°C° 0.1 mm 2 mps 710 mmHg 74%
    19:00 +25°C° 0.1 mm 2 mps 710 mmHg 79%
    20:00 +25°C° 0 mm 1 mps 710 mmHg 81%
    21:00 +24°C° 0 mm 1 mps 711 mmHg 82%
    22:00 +24°C° 0 mm 1 mps 711 mmHg 84%
    23:00 +24°C° 0 mm 1 mps 711 mmHg 84%

    Day after tomorrow, 21 January, Tuesday

    Time Temperature Precipitation Wind Pressure Humidity
    00:00 +23°C° 0 mm 1 mps 711 mmHg 85%
    01:00 +21°C° 0 mm 0 mps 710 mmHg 85%
    02:00 +23°C° 0 mm 1 mps 710 mmHg 86%
    03:00 +23°C° 0 mm 1 mps 710 mmHg 86%
    04:00 +23°C° 0 mm 1 mps 710 mmHg 87%
    05:00 +23°C° 0 mm 1 mps 710 mmHg 85%
    06:00 +24°C° 0 mm 1 mps 711 mmHg 83%
    07:00 +24°C° 0 mm 1 mps 711 mmHg 82%
    08:00 +26°C° 0 mm 1 mps 712 mmHg 73%
    09:00 +28°C° 0 mm 1 mps 712 mmHg 64%
    10:00 +29°C° 0 mm 1 mps 712 mmHg 54%
    11:00 +30°C° 0 mm 2 mps 712 mmHg 53%
    12:00 +30°C° 0 mm 2 mps 711 mmHg 51%
    13:00 +31°C° 0 mm 3 mps 710 mmHg 49%
    14:00 +30°C° 0.1 mm 2 mps 710 mmHg 52%
    15:00 +30°C° 0.1 mm 2 mps 709 mmHg 54%
    16:00 +30°C° 0.1 mm 2 mps 709 mmHg 56%
    17:00 +28°C° 0 mm 2 mps 709 mmHg 63%
    18:00 +27°C° 0 mm 1 mps 709 mmHg 70%
    19:00 +25°C° 0 mm 1 mps 709 mmHg 76%
    20:00 +25°C° 0 mm 1 mps 710 mmHg 78%
    21:00 +24°C° 0 mm 1 mps 710 mmHg 79%
    22:00 +24°C° 0 mm 1 mps 710 mmHg 81%
    23:00 +24°C° 0 mm 1 mps 710 mmHg 82%

    22 January, Wednesday

    Time Temperature Precipitation Wind Pressure Humidity
    00:00 +23°C° 0 mm 1 mps 710 mmHg 83%
    01:00 +23°C° 0 mm 1 mps 710 mmHg 84%
    02:00 +21°C° 0 mm 0 mps 710 mmHg 84%
    03:00 +21°C° 0 mm 0 mps 709 mmHg 85%
    04:00 +20°C° 0 mm 0 mps 709 mmHg 86%
    05:00 +21°C° 0 mm 0 mps 710 mmHg 84%
    06:00 +21°C° 0 mm 0 mps 710 mmHg 82%
    07:00 +22°C° 0 mm 0 mps 711 mmHg 80%
    08:00 +24°C° 0 mm 0 mps 711 mmHg 72%
    09:00 +28°C° 0 mm 1 mps 712 mmHg 64%
    10:00 +30°C° 0 mm 1 mps 712 mmHg 56%
    11:00 +31°C° 0.1 mm 1 mps 711 mmHg 54%
    12:00 +31°C° 0.1 mm 1 mps 711 mmHg 51%
    13:00 +32°C° 0.1 mm 1 mps 710 mmHg 49%
    14:00 +31°C° 0.1 mm 1 mps 709 mmHg 52%
    15:00 +30°C° 0.1 mm 1 mps 709 mmHg 55%
    16:00 +30°C° 0.1 mm 2 mps 708 mmHg 57%
    17:00 +28°C° 0 mm 2 mps 709 mmHg 65%
    18:00 +27°C° 0 mm 2 mps 709 mmHg 73%
    19:00 +25°C° 0 mm 2 mps 709 mmHg 80%
    20:00 +25°C° 0 mm 2 mps 709 mmHg 82%
    21:00 +25°C° 0 mm 2 mps 710 mmHg 84%
    22:00 +25°C° 0 mm 2 mps 710 mmHg 85%
    23:00 +24°C° 0 mm 2 mps 710 mmHg 86%

    23 January, Thursday

    Time Temperature Precipitation Wind Pressure Humidity
    00:00 +24°C° 0 mm 1 mps 710 mmHg 87%
    01:00 +24°C° 0 mm 1 mps 709 mmHg 88%
    02:00 +24°C° 0 mm 1 mps 709 mmHg 89%
    03:00 +23°C° 0 mm 1 mps 709 mmHg 90%
    04:00 +23°C° 0 mm 1 mps 709 mmHg 91%
    05:00 +23°C° 0 mm 1 mps 710 mmHg 89%
    06:00 +23°C° 0 mm 1 mps 710 mmHg 87%
    07:00 +23°C° 0 mm 1 mps 711 mmHg 85%
    08:00 +25°C° 0 mm 1 mps 711 mmHg 76%
    09:00 +27°C° 0 mm 1 mps 712 mmHg 66%
    10:00 +29°C° 0 mm 1 mps 713 mmHg 56%
    11:00 +30°C° 0 mm 1 mps 712 mmHg 55%
    12:00 +30°C° 0 mm 2 mps 711 mmHg 53%
    13:00 +30°C° 0 mm 2 mps 711 mmHg 52%
    14:00 +30°C° 0 mm 2 mps 710 mmHg 56%
    15:00 +29°C° 0 mm 3 mps 710 mmHg 60%
    16:00 +28°C° 0 mm 3 mps 709 mmHg 64%
    17:00 +26°C° 0 mm 3 mps 709 mmHg 71%
    18:00 +25°C° 0 mm 3 mps 709 mmHg 78%
    19:00 +23°C° 0 mm 2 mps 710 mmHg 85%
    20:00 +23°C° 0 mm 2 mps 710 mmHg 85%
    21:00 +21°C° 0 mm 2 mps 710 mmHg 85%
    22:00 +21°C° 0 mm 2 mps 711 mmHg 85%
    23:00 +20°C° 0 mm 2 mps 710 mmHg 84%

    24 January, Friday

    Time Temperature Precipitation Wind Pressure Humidity
    00:00 +20°C° 0 mm 2 mps 710 mmHg 83%
    01:00 +19°C° 0 mm 2 mps 710 mmHg 82%
    02:00 +19°C° 0 mm 2 mps 709 mmHg 83%
    03:00 +19°C° 0 mm 2 mps 709 mmHg 84%
    04:00 +19°C° 0 mm 2 mps 709 mmHg 85%
    05:00 +20°C° 0 mm 1 mps 710 mmHg 85%
    06:00 +21°C° 0 mm 1 mps 710 mmHg 84%
    07:00 +21°C° 0 mm 1 mps 711 mmHg 83%
    08:00 +24°C° 0 mm 1 mps 712 mmHg 74%
    09:00 +26°C° 0 mm 1 mps 712 mmHg 65%
    10:00 +29°C° 0 mm 1 mps 713 mmHg 56%
    11:00 +29°C° 0 mm 1 mps 712 mmHg 54%
    12:00 +29°C° 0 mm 2 mps 712 mmHg 52%
    13:00 +30°C° 0 mm 2 mps 711 mmHg 50%
    14:00 +29°C° 0 mm 2 mps 711 mmHg 54%
    15:00 +28°C° 0 mm 2 mps 710 mmHg 58%
    16:00 +28°C° 0 mm 3 mps 710 mmHg 63%
    17:00 +26°C° 0 mm 2 mps 710 mmHg 70%
    18:00 +25°C° 0 mm 2 mps 710 mmHg 78%
    19:00 +23°C° 0 mm 2 mps 710 mmHg 86%
    20:00 +23°C° 0 mm 2 mps 711 mmHg 88%
    21:00 +21°C° 0 mm 2 mps 711 mmHg 89%
    22:00 +22°C° 0 mm 1 mps 712 mmHg 90%
    23:00 +22°C° 0 mm 1 mps 711 mmHg 90%
    Show more